Meteo Giornale » Osservazioni meteo Giappone » Iwakuni Marine Corps Air Station
ore: 21:56 - Osservazioni Meteo Iwakuni Marine Corps Air Station
Lat. 34° 8' N Lon. 132° 14' E Alt. 2 metri s.l.m.
28 °C
Nuvoloso
Temp. 24 Ore
26 °C
32 °C
Nord
5.5 Km/h
Dew point 22 °C
Umidità 69 %
Visibilità 10 Km
Il sole sorge alle ore 05:44
Il sole tramonta alle ore 18:38
| Data e Ora | Cielo e Fenomeni | T °C | DP °C | Um. % | Pres. hPa | Vis. km | Vento km/h | |
|---|---|---|---|---|---|---|---|---|
| Oggi h: 21:56 | Nuvoloso | 28 | 22 | 69 | 1013 | 10 | N 5.5 | |
| Oggi h: 20:56 | Poco Nuvoloso | 29 | 23 | 70 | 1013 | 10 | N 0 | |
| Oggi h: 19:56 | Poco Nuvoloso | 29 | 23 | 70 | 1013 | 10 | S 9.3 | |
| Oggi h: 18:56 | Molto Nuvoloso | 29 | 23 | 70 | 1012 | 10 | N 5.5 | |
| Oggi h: 17:56 | Molto Nuvoloso | 30 | 23 | 66 | 1012 | 10 | S 11.1 | |
| Oggi h: 16:56 | Molto Nuvoloso | 31 | 23 | 62 | 1012 | 10 | S 14.8 | |
| Oggi h: 15:56 | Molto Nuvoloso | 32 | 23 | 59 | 1012 | 10 | S/SO 16.7 | |
| Oggi h: 14:56 | Molto Nuvoloso | 32 | 22 | 55 | 1012 | 10 | O/SO 14.8 | |
| Oggi h: 13:56 | Molto Nuvoloso | 31 | 23 | 62 | 1012 | 10 | S 16.7 | |
| Oggi h: 12:56 | Molto Nuvoloso | 31 | 22 | 58 | 1012 | 10 | SE 14.8 | |
| Oggi h: 11:56 | Molto Nuvoloso | 31 | 22 | 58 | 1012 | 10 | E/SE 13 | |
| Oggi h: 10:56 | Molto Nuvoloso | 30 | 23 | 66 | 1013 | 10 | SE 7.4 | |
| Oggi h: 09:56 | Molto Nuvoloso | 29 | 23 | 70 | 1013 | 10 | E/SE 9.3 | |
| Oggi h: 08:56 | Nuvoloso | 30 | 23 | 66 | 1013 | 10 | E 11.1 | |
| Oggi h: 07:56 | Nuvoloso | 29 | 22 | 66 | 1013 | 10 | E/NE 9.3 | |
| Oggi h: 06:56 | Poco Nuvoloso | 27 | 22 | 74 | 1013 | 10 | N 5.5 | |
| Oggi h: 05:56 | Poco Nuvoloso | 26 | 22 | 78 | 1012 | 10 | NO 7.4 | |
| Oggi h: 04:56 | Poco Nuvoloso | 26 | 22 | 78 | 1012 | 10 | N 0 | |
| Oggi h: 03:56 | Poco Nuvoloso | 27 | 22 | 74 | 1012 | 10 | S 9.3 | |
| Oggi h: 02:56 | Poco Nuvoloso | 27 | 22 | 74 | 1013 | 10 | S 11.1 | |
| Oggi h: 01:56 | Poco Nuvoloso | 27 | 23 | 78 | 1012 | 10 | O 9.3 | |
| Oggi h: 00:56 | Poco Nuvoloso | 27 | 22 | 74 | 1012 | 10 | N 5.5 | |
| Ieri h: 23:56 | Nuvoloso | 28 | 23 | 74 | 1012 | 10 | O 9.3 | |
| Ieri h: 22:56 | Molto Nuvoloso | 28 | 22 | 69 | 1012 | 10 | O/NO 13 | |



